sat.trackr.live / text

‹ back to catalog

DEIMOS-1

NORAD 35681 · 2009-041A

PAYLOAD ACTIVE UNKNOWN

§ Identity

Operator
Country
SPN
Launch date
2009-07-29
Launch site
TYMSC
Launch vehicle
Mass (kg)
RCS (m²)
0.23

Purposes: earth_obs

External: N2YO · Heavens-Above · Gunter

§ Orbital elements

Epoch: 2026-09-12T04:56:45.695616Z

Period
97.61 min
Inclination
97.7514°
Eccentricity
0.0000258
Mean motion
14.75312520 rev/d
Perigee alt
644.0 km
Apogee alt
644.3 km
Semi-major
7,022.3 km
B*
7.0133e-5
RAAN
48.7246°
Arg perigee
60.3961°
Mean anomaly
299.7275°
Rev number
91,971

§ Raw data

DEIMOS-11 35681U 09041A   26255.20608444  .00000427  00000+0  70133-4 0  99952 35681  97.7514  48.7246 0000258  60.3961 299.7275 14.75312520919717

JSON: /api/v1/satellites/35681 · /tle

For live sub-satellite position, see the globe view (requires WebGL).

§ Visibility from observer

Set your observer location to see the next 7 days of passes ≥ 10°. The values pass through the URL so the page stays shareable.

No JS? Fill the form by hand. The geolocation button needs JavaScript.

§ Radio — SatNOGS DB

ModeDescriptionDownlinkUplink
FM S-band telemetry 2.240 GHz

1 transmitter · refreshed weekly from db.satnogs.org